Time,TemperatureF,DewpointF,PressureIn,WindDirection,WindDirectionDegrees,WindSpeedMPH,WindSpeedGustMPH,Humidity,HourlyPrecipIn,Conditions,Clouds,dailyrainin,SolarRadiationWatts/m^2,SoftwareType,DateUTC
2013-10-21 00:00:00,56.3,46.3,29.85,West,275,2.0,2.0,69,0.00,,,0.00,0,Wunderground v.1.15,2013-10-21 05:00:00,
2013-10-21 00:10:00,55.8,46.5,29.85,West,275,2.0,2.0,71,0.00,,,0.00,0,Wunderground v.1.15,2013-10-21 05:10:00,
2013-10-21 00:20:00,55.6,46.3,29.86,West,275,2.0,3.0,71,0.00,,,0.00,0,Wunderground v.1.15,2013-10-21 05:20:00,
2013-10-21 00:25:00,55.6,46.7,29.85,West,275,3.0,3.0,72,0.00,,,0.00,0,Wunderground v.1.15,2013-10-21 05:25:00,
2013-10-21 00:30:00,55.6,46.7,29.85,West,275,3.0,5.0,72,0.00,,,0.00,0,Wunderground v.1.15,2013-10-21 05:30:00,
2013-10-21 00:35:00,55.6,47.1,29.85,West,275,3.0,5.0,73,0.00,,,0.00,0,Wunderground v.1.15,2013-10-21 05:35:00,
2013-10-21 00:40:00,55.7,47.2,29.85,West,275,4.0,4.0,73,0.00,,,0.00,0,Wunderground v.1.15,2013-10-21 05:40:00,
2013-10-21 00:45:00,55.6,47.1,29.86,West,275,4.0,4.0,73,0.00,,,0.00,0,Wunderground v.1.15,2013-10-21 05:45:00,
2013-10-21 00:50:00,55.5,47.0,29.86,West,275,4.0,5.0,73,0.00,,,0.00,0,Wunderground v.1.15,2013-10-21 05:50:00,
2013-10-21 00:55:00,55.5,46.6,29.86,West,275,4.0,5.0,72,0.00,,,0.00,0,Wunderground v.1.15,2013-10-21 05:55:00,
2013-10-21 01:00:00,55.6,46.7,29.86,West,275,4.0,4.0,72,0.00,,,0.00,0,Wunderground v.1.15,2013-10-21 06:00:00,
2013-10-21 01:10:00,56.0,47.1,29.86,West,275,5.0,5.0,72,0.00,,,0.00,0,Wunderground v.1.15,2013-10-21 06:10:00,
2013-10-21 01:20:00,56.5,47.2,29.87,WNW,299,8.0,10.0,71,0.00,,,0.00,0,Wunderground v.1.15,2013-10-21 06:20:00,
2013-10-21 01:25:00,56.7,47.4,29.87,NW,308,10.0,10.0,71,0.00,,,0.00,0,Wunderground v.1.15,2013-10-21 06:25:00,
2013-10-21 01:30:00,56.8,47.1,29.87,WNW,301,10.0,13.0,70,0.00,,,0.00,0,Wunderground v.1.15,2013-10-21 06:30:00,
2013-10-21 01:35:00,56.7,47.0,29.87,NW,313,11.0,13.0,70,0.00,,,0.00,0,Wunderground v.1.15,2013-10-21 06:35:00,
2013-10-21 01:40:00,56.5,47.2,29.87,NW,313,10.0,10.0,71,0.00,,,0.00,0,Wunderground v.1.15,2013-10-21 06:40:00,
2013-10-21 01:45:00,56.2,46.9,29.88,NW,316,9.0,10.0,71,0.00,,,0.00,0,Wunderground v.1.15,2013-10-21 06:45:00,
2013-10-21 01:50:00,55.9,47.0,29.87,NW,316,8.0,8.0,72,0.00,,,0.00,0,Wunderground v.1.15,2013-10-21 06:50:00,
2013-10-21 01:55:00,55.5,46.6,29.87,NW,314,6.0,8.0,72,0.00,,,0.00,0,Wunderground v.1.15,2013-10-21 06:55:00,
2013-10-21 02:00:00,55.1,46.2,29.88,NW,317,5.0,5.0,72,0.00,,,0.00,0,Wunderground v.1.15,2013-10-21 07:00:00,
2013-10-21 02:10:00,54.2,45.4,29.88,NW,311,6.0,9.0,72,0.00,,,0.00,0,Wunderground v.1.15,2013-10-21 07:10:00,
2013-10-21 02:15:00,53.9,45.1,29.88,NW,319,6.0,9.0,72,0.00,,,0.00,0,Wunderground v.1.15,2013-10-21 07:15:00,
2013-10-21 02:25:00,53.5,45.4,29.88,NW,320,5.0,5.0,74,0.00,,,0.00,0,Wunderground v.1.15,2013-10-21 07:25:00,
2013-10-21 02:30:00,53.3,45.2,29.88,NW,317,5.0,5.0,74,0.00,,,0.00,0,Wunderground v.1.15,2013-10-21 07:30:00,
2013-10-21 02:35:00,53.2,45.1,29.87,NW,319,5.0,5.0,74,0.00,,,0.00,0,Wunderground v.1.15,2013-10-21 07:35:00,
2013-10-21 02:40:00,53.0,45.3,29.88,NW,314,4.0,6.0,75,0.00,,,0.00,0,Wunderground v.1.15,2013-10-21 07:40:00,
2013-10-21 02:45:00,52.6,45.2,29.88,NW,314,4.0,6.0,76,0.00,,,0.00,0,Wunderground v.1.15,2013-10-21 07:45:00,
2013-10-21 02:50:00,52.2,44.9,29.88,NW,314,4.0,4.0,76,0.00,,,0.00,0,Wunderground v.1.15,2013-10-21 07:50:00,
2013-10-21 02:55:00,51.8,44.8,29.88,NW,314,4.0,4.0,77,0.00,,,0.00,0,Wunderground v.1.15,2013-10-21 07:55:00,
2013-10-21 03:00:00,51.4,44.4,29.88,NW,313,5.0,5.0,77,0.00,,,0.00,0,Wunderground v.1.15,2013-10-21 08:00:00,
2013-10-21 03:10:00,50.8,44.2,29.88,NW,314,6.0,6.0,78,0.00,,,0.00,0,Wunderground v.1.15,2013-10-21 08:10:00,
2013-10-21 03:15:00,50.6,44.3,29.89,NW,312,6.0,6.0,79,0.00,,,0.00,0,Wunderground v.1.15,2013-10-21 08:15:00,
2013-10-21 03:20:00,50.5,44.2,29.89,NW,312,5.0,6.0,79,0.00,,,0.00,0,Wunderground v.1.15,2013-10-21 08:20:00,
2013-10-21 03:30:00,50.4,44.1,29.89,NW,313,5.0,5.0,79,0.00,,,0.00,0,Wunderground v.1.15,2013-10-21 08:30:00,
2013-10-21 03:35:00,50.4,44.5,29.89,NW,313,5.0,5.0,80,0.00,,,0.00,0,Wunderground v.1.15,2013-10-21 08:35:00,
2013-10-21 03:40:00,50.4,44.1,29.89,NW,313,5.0,5.0,79,0.00,,,0.00,0,Wunderground v.1.15,2013-10-21 08:40:00,
2013-10-21 03:45:00,50.5,44.6,29.89,NW,312,5.0,5.0,80,0.00,,,0.00,0,Wunderground v.1.15,2013-10-21 08:45:00,
2013-10-21 03:50:00,50.5,44.2,29.90,NW,311,6.0,7.0,79,0.00,,,0.00,0,Wunderground v.1.15,2013-10-21 08:50:00,
2013-10-21 03:55:00,50.5,44.6,29.90,NW,311,6.0,7.0,80,0.00,,,0.00,0,Wunderground v.1.15,2013-10-21 08:55:00,
2013-10-21 04:00:00,50.5,44.2,29.90,NW,310,7.0,7.0,79,0.00,,,0.00,0,Wunderground v.1.15,2013-10-21 09:00:00,
2013-10-21 04:10:00,50.5,44.6,29.91,NW,309,8.0,8.0,80,0.00,,,0.00,0,Wunderground v.1.15,2013-10-21 09:10:00,
2013-10-21 04:15:00,50.4,44.5,29.91,NW,309,9.0,12.0,80,0.00,,,0.00,0,Wunderground v.1.15,2013-10-21 09:15:00,
2013-10-21 04:20:00,50.3,44.4,29.91,NW,309,10.0,10.0,80,0.00,,,0.00,0,Wunderground v.1.15,2013-10-21 09:20:00,
2013-10-21 04:25:00,50.0,44.4,29.91,NW,312,10.0,10.0,81,0.00,,,0.00,0,Wunderground v.1.15,2013-10-21 09:25:00,
2013-10-21 04:35:00,49.4,43.8,29.92,NW,314,9.0,9.0,81,0.00,,,0.00,0,Wunderground v.1.15,2013-10-21 09:35:00,
2013-10-21 04:40:00,49.0,43.4,29.92,NW,311,9.0,11.0,81,0.00,,,0.00,0,Wunderground v.1.15,2013-10-21 09:40:00,
2013-10-21 04:45:00,48.6,43.0,29.92,NW,310,10.0,11.0,81,0.00,,,0.00,0,Wunderground v.1.15,2013-10-21 09:45:00,
2013-10-21 04:50:00,48.1,42.9,29.92,NW,310,9.0,9.0,82,0.00,,,0.00,0,Wunderground v.1.15,2013-10-21 09:50:00,
2013-10-21 04:55:00,47.7,42.8,29.92,NW,311,7.0,9.0,83,0.00,,,0.00,0,Wunderground v.1.15,2013-10-21 09:55:00,
2013-10-21 05:05:00,46.9,42.3,29.92,NW,313,5.0,7.0,84,0.00,,,0.00,0,Wunderground v.1.15,2013-10-21 10:05:00,
2013-10-21 05:10:00,46.5,41.9,29.93,NW,313,5.0,6.0,84,0.00,,,0.00,0,Wunderground v.1.15,2013-10-21 10:10:00,
2013-10-21 05:15:00,46.1,41.8,29.93,NW,313,4.0,6.0,85,0.00,,,0.00,0,Wunderground v.1.15,2013-10-21 10:15:00,
2013-10-21 05:20:00,45.9,41.6,29.93,NW,313,3.0,4.0,85,0.00,,,0.00,0,Wunderground v.1.15,2013-10-21 10:20:00,
2013-10-21 05:25:00,45.5,41.6,29.93,NW,317,3.0,4.0,86,0.00,,,0.00,0,Wunderground v.1.15,2013-10-21 10:25:00,
2013-10-21 05:30:00,45.2,41.3,29.93,NW,317,3.0,3.0,86,0.00,,,0.00,0,Wunderground v.1.15,2013-10-21 10:30:00,
2013-10-21 05:40:00,44.7,40.8,29.94,NW,317,2.0,2.0,86,0.00,,,0.00,0,Wunderground v.1.15,2013-10-21 10:40:00,
2013-10-21 05:45:00,44.5,40.9,29.94,NW,317,2.0,2.0,87,0.00,,,0.00,0,Wunderground v.1.15,2013-10-21 10:45:00,
2013-10-21 05:50:00,44.4,40.8,29.94,NW,317,3.0,3.0,87,0.00,,,0.00,0,Wunderground v.1.15,2013-10-21 10:50:00,
2013-10-21 05:55:00,44.2,40.6,29.94,NW,317,3.0,3.0,87,0.00,,,0.00,0,Wunderground v.1.15,2013-10-21 10:55:00,
2013-10-21 06:00:00,44.1,40.5,29.94,NW,318,3.0,3.0,87,0.00,,,0.00,0,Wunderground v.1.15,2013-10-21 11:00:00,
2013-10-21 06:05:00,44.0,40.4,29.95,NW,318,3.0,3.0,87,0.00,,,0.00,0,Wunderground v.1.15,2013-10-21 11:05:00,
2013-10-21 06:10:00,44.0,40.7,29.95,NW,315,4.0,8.0,88,0.00,,,0.00,0,Wunderground v.1.15,2013-10-21 11:10:00,
2013-10-21 06:15:00,44.1,40.8,29.95,NW,304,7.0,10.0,88,0.00,,,0.00,0,Wunderground v.1.15,2013-10-21 11:15:00,
2013-10-21 06:20:00,43.8,39.9,29.95,NW,306,11.0,14.0,86,0.00,,,0.00,0,Wunderground v.1.15,2013-10-21 11:20:00,
2013-10-21 06:25:00,43.2,38.7,29.95,NW,313,12.0,14.0,84,0.00,,,0.00,0,Wunderground v.1.15,2013-10-21 11:25:00,
2013-10-21 06:30:00,42.8,38.3,29.96,NW,312,11.0,13.0,84,0.00,,,0.00,0,Wunderground v.1.15,2013-10-21 11:30:00,
2013-10-21 06:35:00,42.5,38.3,29.96,WNW,293,10.0,13.0,85,0.00,,,0.00,0,Wunderground v.1.15,2013-10-21 11:35:00,
2013-10-21 06:45:00,41.8,37.6,29.97,NW,308,11.0,14.0,85,0.00,,,0.00,0,Wunderground v.1.15,2013-10-21 11:45:00,
2013-10-21 06:50:00,41.6,37.7,29.97,NW,304,11.0,11.0,86,0.00,,,0.00,0,Wunderground v.1.15,2013-10-21 11:50:00,
2013-10-21 06:55:00,41.3,37.4,29.97,NW,306,9.0,11.0,86,0.00,,,0.00,0,Wunderground v.1.15,2013-10-21 11:55:00,
2013-10-21 07:00:00,41.1,37.2,29.97,WNW,300,8.0,10.0,86,0.00,,,0.00,0,Wunderground v.1.15,2013-10-21 12:00:00,
2013-10-21 07:05:00,40.9,37.0,29.98,NW,309,8.0,13.0,86,0.00,,,0.00,0,Wunderground v.1.15,2013-10-21 12:05:00,
2013-10-21 07:15:00,40.6,36.7,29.98,WNW,300,8.0,8.0,86,0.00,,,0.00,0,Wunderground v.1.15,2013-10-21 12:15:00,
2013-10-21 07:20:00,40.5,36.6,29.98,WNW,300,8.0,8.0,86,0.00,,,0.00,0,Wunderground v.1.15,2013-10-21 12:20:00,
2013-10-21 07:25:00,40.5,36.6,29.99,WNW,299,7.0,8.0,86,0.00,,,0.00,0,Wunderground v.1.15,2013-10-21 12:25:00,
2013-10-21 07:30:00,40.4,36.5,29.99,WNW,302,7.0,11.0,86,0.00,,,0.00,5,Wunderground v.1.15,2013-10-21 12:30:00,
2013-10-21 07:35:00,40.5,36.6,29.99,WNW,300,8.0,11.0,86,0.00,,,0.00,7,Wunderground v.1.15,2013-10-21 12:35:00,
2013-10-21 07:40:00,40.6,37.0,29.99,NW,306,8.0,8.0,87,0.00,,,0.00,9,Wunderground v.1.15,2013-10-21 12:40:00,
2013-10-21 07:50:00,41.0,37.1,30.00,NW,305,8.0,8.0,86,0.00,,,0.00,16,Wunderground v.1.15,2013-10-21 12:50:00,
2013-10-21 07:55:00,41.2,37.3,30.00,NW,305,8.0,10.0,86,0.00,,,0.00,18,Wunderground v.1.15,2013-10-21 12:55:00,
2013-10-21 08:00:00,41.5,37.3,30.00,NW,313,9.0,9.0,85,0.00,,,0.00,16,Wunderground v.1.15,2013-10-21 13:00:00,
2013-10-21 08:05:00,41.7,37.5,30.00,NW,310,9.0,9.0,85,0.00,,,0.00,11,Wunderground v.1.15,2013-10-21 13:05:00,
2013-10-21 08:10:00,41.7,37.2,30.00,NW,319,6.0,6.0,84,0.00,,,0.00,32,Wunderground v.1.15,2013-10-21 13:10:00,
2013-10-21 08:20:00,41.6,35.9,30.00,NW,325,5.0,5.0,80,0.00,,,0.00,53,Wunderground v.1.15,2013-10-21 13:20:00,
2013-10-21 08:25:00,41.6,35.9,30.00,NW,312,4.0,6.0,80,0.00,,,0.00,67,Wunderground v.1.15,2013-10-21 13:25:00,
2013-10-21 08:30:00,41.6,35.6,30.00,NW,316,5.0,5.0,79,0.00,,,0.00,81,Wunderground v.1.15,2013-10-21 13:30:00,
2013-10-21 08:35:00,41.5,35.2,30.01,NW,321,5.0,9.0,78,0.00,,,0.00,77,Wunderground v.1.15,2013-10-21 13:35:00,
2013-10-21 08:40:00,41.5,35.5,30.01,NW,315,6.0,6.0,79,0.00,,,0.00,127,Wunderground v.1.15,2013-10-21 13:40:00,
2013-10-21 08:45:00,41.5,35.2,30.01,NW,309,7.0,7.0,78,0.00,,,0.00,185,Wunderground v.1.15,2013-10-21 13:45:00,
2013-10-21 08:55:00,41.8,35.1,30.01,NW,310,9.0,10.0,77,0.00,,,0.00,163,Wunderground v.1.15,2013-10-21 13:55:00,
2013-10-21 09:00:00,41.8,34.8,30.01,NW,320,11.0,12.0,76,0.00,,,0.00,158,Wunderground v.1.15,2013-10-21 14:00:00,
2013-10-21 09:05:00,41.7,34.7,30.01,NW,309,12.0,12.0,76,0.00,,,0.00,183,Wunderground v.1.15,2013-10-21 14:05:00,
2013-10-21 09:10:00,41.9,34.9,30.01,NW,321,9.0,12.0,76,0.00,,,0.00,153,Wunderground v.1.15,2013-10-21 14:10:00,
2013-10-21 09:15:00,42.0,34.6,30.02,NW,312,8.0,13.0,75,0.00,,,0.00,153,Wunderground v.1.15,2013-10-21 14:15:00,
2013-10-21 09:25:00,41.9,34.2,30.02,NW,310,9.0,13.0,74,0.00,,,0.00,195,Wunderground v.1.15,2013-10-21 14:25:00,
2013-10-21 09:30:00,41.9,34.2,30.02,NW,313,9.0,11.0,74,0.00,,,0.00,188,Wunderground v.1.15,2013-10-21 14:30:00,
2013-10-21 09:35:00,42.0,34.6,30.02,NW,314,10.0,12.0,75,0.00,,,0.00,211,Wunderground v.1.15,2013-10-21 14:35:00,
2013-10-21 09:40:00,42.3,34.9,30.02,NW,316,8.0,9.0,75,0.00,,,0.00,248,Wunderground v.1.15,2013-10-21 14:40:00,
2013-10-21 09:45:00,42.6,34.9,30.02,NW,309,8.0,15.0,74,0.00,,,0.00,258,Wunderground v.1.15,2013-10-21 14:45:00,
2013-10-21 09:50:00,42.8,35.8,30.02,NW,314,9.0,10.0,76,0.00,,,0.00,246,Wunderground v.1.15,2013-10-21 14:50:00,
2013-10-21 10:00:00,43.4,34.3,30.02,NW,315,9.0,15.0,70,0.00,,,0.00,320,Wunderground v.1.15,2013-10-21 15:00:00,
2013-10-21 10:05:00,43.5,34.0,30.02,NW,312,10.0,15.0,69,0.00,,,0.00,271,Wunderground v.1.15,2013-10-21 15:05:00,
2013-10-21 10:10:00,43.7,34.2,30.02,NW,306,11.0,13.0,69,0.00,,,0.00,253,Wunderground v.1.15,2013-10-21 15:10:00,
2013-10-21 10:15:00,43.7,33.8,30.02,NW,313,8.0,13.0,68,0.00,,,0.00,213,Wunderground v.1.15,2013-10-21 15:15:00,
2013-10-21 10:20:00,43.6,34.1,30.02,NW,313,8.0,8.0,69,0.00,,,0.00,200,Wunderground v.1.15,2013-10-21 15:20:00,
2013-10-21 10:30:00,43.3,33.8,30.02,NW,319,11.0,11.0,69,0.00,,,0.00,230,Wunderground v.1.15,2013-10-21 15:30:00,
2013-10-21 10:35:00,43.2,34.1,30.02,NW,312,9.0,11.0,70,0.00,,,0.00,229,Wunderground v.1.15,2013-10-21 15:35:00,
2013-10-21 10:40:00,43.1,34.3,30.02,NW,309,10.0,10.0,71,0.00,,,0.00,193,Wunderground v.1.15,2013-10-21 15:40:00,
2013-10-21 10:45:00,43.0,34.2,30.02,NW,313,11.0,11.0,71,0.00,,,0.00,221,Wunderground v.1.15,2013-10-21 15:45:00,
2013-10-21 10:50:00,43.0,34.2,30.02,NW,304,9.0,12.0,71,0.00,,,0.00,248,Wunderground v.1.15,2013-10-21 15:50:00,
2013-10-21 10:55:00,43.0,34.2,30.02,WNW,296,9.0,12.0,71,0.00,,,0.00,236,Wunderground v.1.15,2013-10-21 15:55:00,
2013-10-21 11:05:00,43.3,34.5,30.02,WNW,302,11.0,14.0,71,0.00,,,0.00,322,Wunderground v.1.15,2013-10-21 16:05:00,
2013-10-21 11:10:00,43.5,34.0,30.02,WNW,290,11.0,12.0,69,0.00,,,0.00,330,Wunderground v.1.15,2013-10-21 16:10:00,
2013-10-21 11:15:00,43.7,33.8,30.02,WNW,303,12.0,12.0,68,0.00,,,0.00,309,Wunderground v.1.15,2013-10-21 16:15:00,
2013-10-21 11:20:00,44.3,34.4,30.02,NW,309,11.0,13.0,68,0.00,,,0.00,294,Wunderground v.1.15,2013-10-21 16:20:00,
2013-10-21 11:25:00,44.5,34.2,30.02,WNW,300,12.0,13.0,67,0.00,,,0.00,295,Wunderground v.1.15,2013-10-21 16:25:00,
2013-10-21 11:30:00,44.8,34.9,30.02,NW,304,12.0,14.0,68,0.00,,,0.00,295,Wunderground v.1.15,2013-10-21 16:30:00,
2013-10-21 11:35:00,45.3,35.0,30.02,WNW,300,11.0,14.0,67,0.00,,,0.00,232,Wunderground v.1.15,2013-10-21 16:35:00,
2013-10-21 11:40:00,45.4,33.9,30.02,NW,314,13.0,15.0,64,0.00,,,0.00,265,Wunderground v.1.15,2013-10-21 16:40:00,
2013-10-21 11:45:00,45.4,34.3,30.02,NW,307,14.0,15.0,65,0.00,,,0.00,306,Wunderground v.1.15,2013-10-21 16:45:00,
2013-10-21 11:50:00,45.5,33.6,30.02,NW,312,15.0,15.0,63,0.00,,,0.00,267,Wunderground v.1.15,2013-10-21 16:50:00,
2013-10-21 11:55:00,45.3,34.2,30.02,WNW,303,15.0,15.0,65,0.00,,,0.00,197,Wunderground v.1.15,2013-10-21 16:55:00,
2013-10-21 12:00:00,45.2,34.1,30.02,NW,305,14.0,15.0,65,0.00,,,0.00,216,Wunderground v.1.15,2013-10-21 17:00:00,
2013-10-21 12:10:00,45.0,33.5,30.02,WNW,302,16.0,16.0,64,0.00,,,0.00,176,Wunderground v.1.15,2013-10-21 17:10:00,
2013-10-21 12:15:00,45.2,34.5,30.02,NW,311,14.0,16.0,66,0.00,,,0.00,828,Wunderground v.1.15,2013-10-21 17:15:00,
2013-10-21 12:20:00,46.0,32.9,30.02,NW,316,12.0,14.0,60,0.00,,,0.00,403,Wunderground v.1.15,2013-10-21 17:20:00,
2013-10-21 12:25:00,46.0,32.9,30.02,NW,308,14.0,16.0,60,0.00,,,0.00,306,Wunderground v.1.15,2013-10-21 17:25:00,
2013-10-21 12:30:00,45.8,32.7,30.02,NW,311,15.0,15.0,60,0.00,,,0.00,251,Wunderground v.1.15,2013-10-21 17:30:00,
2013-10-21 12:35:00,46.0,33.7,30.01,NNW,327,14.0,17.0,62,0.00,,,0.00,912,Wunderground v.1.15,2013-10-21 17:35:00,
2013-10-21 12:40:00,46.8,32.4,30.01,WNW,301,14.0,14.0,57,0.00,,,0.00,394,Wunderground v.1.15,2013-10-21 17:40:00,
2013-10-21 12:45:00,47.2,32.7,30.01,WNW,296,15.0,15.0,57,0.00,,,0.00,353,Wunderground v.1.15,2013-10-21 17:45:00,
2013-10-21 12:50:00,47.0,31.7,30.01,NNW,327,15.0,15.0,55,0.00,,,0.00,399,Wunderground v.1.15,2013-10-21 17:50:00,
2013-10-21 12:55:00,46.6,30.8,30.01,NW,313,16.0,16.0,54,0.00,,,0.00,304,Wunderground v.1.15,2013-10-21 17:55:00,
2013-10-21 13:00:00,46.2,30.0,30.01,WNW,288,16.0,16.0,53,0.00,,,0.00,185,Wunderground v.1.15,2013-10-21 18:00:00,
2013-10-21 13:10:00,46.8,30.6,30.01,WNW,300,13.0,13.0,53,0.00,,,0.00,737,Wunderground v.1.15,2013-10-21 18:10:00,
2013-10-21 13:15:00,47.0,30.7,30.00,WNW,301,13.0,13.0,53,0.00,,,0.00,737,Wunderground v.1.15,2013-10-21 18:15:00,
2013-10-21 13:20:00,47.2,30.5,30.00,West,277,13.0,13.0,52,0.00,,,0.00,650,Wunderground v.1.15,2013-10-21 18:20:00,
2013-10-21 13:25:00,47.7,31.4,30.00,WNW,284,13.0,18.0,53,0.00,,,0.00,673,Wunderground v.1.15,2013-10-21 18:25:00,
2013-10-21 13:30:00,47.8,31.0,30.00,WNW,303,14.0,14.0,52,0.00,,,0.00,666,Wunderground v.1.15,2013-10-21 18:30:00,
2013-10-21 13:35:00,47.8,29.5,30.00,WNW,299,14.0,14.0,49,0.00,,,0.00,454,Wunderground v.1.15,2013-10-21 18:35:00,
2013-10-21 13:40:00,48.0,30.2,30.00,West,277,14.0,15.0,50,0.00,,,0.00,483,Wunderground v.1.15,2013-10-21 18:40:00,
2013-10-21 13:45:00,48.3,29.0,30.00,WNW,288,14.0,15.0,47,0.00,,,0.00,619,Wunderground v.1.15,2013-10-21 18:45:00,
2013-10-21 13:50:00,48.2,28.9,29.99,NW,309,13.0,15.0,47,0.00,,,0.00,636,Wunderground v.1.15,2013-10-21 18:50:00,
2013-10-21 13:55:00,48.2,29.4,29.99,West,271,13.0,16.0,48,0.00,,,0.00,624,Wunderground v.1.15,2013-10-21 18:55:00,
2013-10-21 14:00:00,48.3,29.0,29.99,NW,307,14.0,15.0,47,0.00,,,0.00,612,Wunderground v.1.15,2013-10-21 19:00:00,
2013-10-21 14:10:00,48.4,28.5,29.99,WNW,293,14.0,14.0,46,0.00,,,0.00,601,Wunderground v.1.15,2013-10-21 19:10:00,
2013-10-21 14:20:00,48.5,29.2,29.99,NW,310,15.0,20.0,47,0.00,,,0.00,589,Wunderground v.1.15,2013-10-21 19:20:00,
2013-10-21 14:25:00,48.8,28.4,29.99,West,263,15.0,20.0,45,0.00,,,0.00,578,Wunderground v.1.15,2013-10-21 19:25:00,
2013-10-21 14:30:00,48.6,28.2,29.99,WNW,282,15.0,15.0,45,0.00,,,0.00,570,Wunderground v.1.15,2013-10-21 19:30:00,
2013-10-21 14:35:00,48.7,29.9,29.99,NW,309,15.0,20.0,48,0.00,,,0.00,561,Wunderground v.1.15,2013-10-21 19:35:00,
2013-10-21 14:40:00,49.1,29.2,29.99,West,281,14.0,14.0,46,0.00,,,0.00,550,Wunderground v.1.15,2013-10-21 19:40:00,
2013-10-21 14:45:00,49.1,28.1,29.99,West,273,14.0,14.0,44,0.00,,,0.00,540,Wunderground v.1.15,2013-10-21 19:45:00,
2013-10-21 14:50:00,48.9,28.5,29.99,NW,307,14.0,18.0,45,0.00,,,0.00,527,Wunderground v.1.15,2013-10-21 19:50:00,
2013-10-21 14:55:00,49.0,28.0,29.99,WNW,299,14.0,18.0,44,0.00,,,0.00,517,Wunderground v.1.15,2013-10-21 19:55:00,
2013-10-21 15:00:00,48.8,28.4,29.99,WNW,293,15.0,15.0,45,0.00,,,0.00,508,Wunderground v.1.15,2013-10-21 20:00:00,
2013-10-21 15:10:00,49.2,27.6,29.99,WNW,297,13.0,21.0,43,0.00,,,0.00,489,Wunderground v.1.15,2013-10-21 20:10:00,
2013-10-21 15:15:00,49.2,28.2,29.99,West,276,14.0,21.0,44,0.00,,,0.00,475,Wunderground v.1.15,2013-10-21 20:15:00,
2013-10-21 15:25:00,49.2,27.6,29.99,WNW,302,15.0,16.0,43,0.00,,,0.00,452,Wunderground v.1.15,2013-10-21 20:25:00,
2013-10-21 15:30:00,49.2,27.6,29.99,NW,305,14.0,14.0,43,0.00,,,0.00,443,Wunderground v.1.15,2013-10-21 20:30:00,
2013-10-21 15:35:00,49.1,27.5,29.99,West,280,14.0,18.0,43,0.00,,,0.00,429,Wunderground v.1.15,2013-10-21 20:35:00,
2013-10-21 15:40:00,49.0,27.5,29.99,NW,313,14.0,14.0,43,0.00,,,0.00,417,Wunderground v.1.15,2013-10-21 20:40:00,
2013-10-21 15:45:00,48.9,28.5,29.99,WNW,300,16.0,17.0,45,0.00,,,0.00,404,Wunderground v.1.15,2013-10-21 20:45:00,
2013-10-21 15:50:00,48.8,27.3,29.99,WNW,284,15.0,15.0,43,0.00,,,0.00,388,Wunderground v.1.15,2013-10-21 20:50:00,
2013-10-21 16:00:00,48.8,27.8,30.00,West,273,14.0,14.0,44,0.00,,,0.00,360,Wunderground v.1.15,2013-10-21 21:00:00,
2013-10-21 16:05:00,49.0,28.0,30.00,WNW,296,14.0,16.0,44,0.00,,,0.00,348,Wunderground v.1.15,2013-10-21 21:05:00,
2013-10-21 16:10:00,49.0,27.5,30.00,WNW,297,13.0,14.0,43,0.00,,,0.00,336,Wunderground v.1.15,2013-10-21 21:10:00,
2013-10-21 16:15:00,48.8,27.8,30.00,West,259,13.0,16.0,44,0.00,,,0.00,320,Wunderground v.1.15,2013-10-21 21:15:00,
2013-10-21 16:20:00,48.9,27.4,30.00,West,276,12.0,14.0,43,0.00,,,0.00,306,Wunderground v.1.15,2013-10-21 21:20:00,
2013-10-21 16:30:00,48.8,27.8,30.00,WNW,300,13.0,13.0,44,0.00,,,0.00,274,Wunderground v.1.15,2013-10-21 21:30:00,
2013-10-21 16:35:00,48.7,27.7,30.00,WNW,300,12.0,13.0,44,0.00,,,0.00,258,Wunderground v.1.15,2013-10-21 21:35:00,
2013-10-21 16:40:00,48.7,27.7,30.00,NW,309,11.0,14.0,44,0.00,,,0.00,244,Wunderground v.1.15,2013-10-21 21:40:00,
2013-10-21 16:45:00,48.6,27.6,30.00,NW,304,12.0,14.0,44,0.00,,,0.00,225,Wunderground v.1.15,2013-10-21 21:45:00,
2013-10-21 16:50:00,48.6,27.6,30.00,WNW,296,13.0,13.0,44,0.00,,,0.00,204,Wunderground v.1.15,2013-10-21 21:50:00,
2013-10-21 16:55:00,48.5,27.0,30.00,WNW,297,12.0,13.0,43,0.00,,,0.00,185,Wunderground v.1.15,2013-10-21 21:55:00,
2013-10-21 17:05:00,48.4,27.5,30.00,NW,305,12.0,13.0,44,0.00,,,0.00,146,Wunderground v.1.15,2013-10-21 22:05:00,
2013-10-21 17:10:00,48.3,27.4,30.01,WNW,302,12.0,14.0,44,0.00,,,0.00,128,Wunderground v.1.15,2013-10-21 22:10:00,
2013-10-21 17:15:00,48.1,27.7,30.01,WNW,290,12.0,14.0,45,0.00,,,0.00,114,Wunderground v.1.15,2013-10-21 22:15:00,
2013-10-21 17:20:00,48.0,26.5,30.01,WNW,300,10.0,10.0,43,0.00,,,0.00,97,Wunderground v.1.15,2013-10-21 22:20:00,
2013-10-21 17:25:00,47.9,27.6,30.00,NW,305,9.0,12.0,45,0.00,,,0.00,81,Wunderground v.1.15,2013-10-21 22:25:00,
2013-10-21 17:30:00,47.8,27.5,30.01,WNW,302,9.0,10.0,45,0.00,,,0.00,65,Wunderground v.1.15,2013-10-21 22:30:00,
2013-10-21 17:35:00,47.6,27.3,30.01,West,281,10.0,10.0,45,0.00,,,0.00,53,Wunderground v.1.15,2013-10-21 22:35:00,
2013-10-21 17:40:00,47.5,26.6,30.01,NW,305,9.0,12.0,44,0.00,,,0.00,40,Wunderground v.1.15,2013-10-21 22:40:00,
2013-10-21 17:45:00,47.3,27.0,30.01,WNW,297,9.0,12.0,45,0.00,,,0.00,30,Wunderground v.1.15,2013-10-21 22:45:00,
2013-10-21 17:50:00,47.0,27.8,30.01,WNW,298,8.0,8.0,47,0.00,,,0.00,21,Wunderground v.1.15,2013-10-21 22:50:00,
2013-10-21 17:55:00,46.7,28.0,30.01,WNW,298,7.0,8.0,48,0.00,,,0.00,18,Wunderground v.1.15,2013-10-21 22:55:00,
2013-10-21 18:00:00,46.3,28.7,30.02,WNW,298,6.0,6.0,50,0.00,,,0.00,14,Wunderground v.1.15,2013-10-21 23:00:00,
2013-10-21 18:05:00,45.8,28.7,30.02,WNW,298,5.0,6.0,51,0.00,,,0.00,11,Wunderground v.1.15,2013-10-21 23:05:00,
2013-10-21 18:10:00,45.2,28.1,30.01,WNW,298,5.0,5.0,51,0.00,,,0.00,7,Wunderground v.1.15,2013-10-21 23:10:00,
2013-10-21 18:15:00,44.7,28.1,30.01,WNW,298,4.0,5.0,52,0.00,,,0.00,0,Wunderground v.1.15,2013-10-21 23:15:00,
2013-10-21 18:20:00,44.2,29.0,30.01,WNW,298,3.0,3.0,55,0.00,,,0.00,0,Wunderground v.1.15,2013-10-21 23:20:00,
2013-10-21 18:25:00,43.7,27.7,30.01,WNW,298,3.0,3.0,53,0.00,,,0.00,0,Wunderground v.1.15,2013-10-21 23:25:00,
2013-10-21 18:30:00,43.3,28.2,30.01,WNW,298,2.0,3.0,55,0.00,,,0.00,0,Wunderground v.1.15,2013-10-21 23:30:00,
2013-10-21 18:40:00,42.4,29.5,30.01,WNW,298,2.0,2.0,60,0.00,,,0.00,0,Wunderground v.1.15,2013-10-21 23:40:00,
2013-10-21 18:45:00,41.9,30.2,30.01,WNW,298,2.0,3.0,63,0.00,,,0.00,0,Wunderground v.1.15,2013-10-21 23:45:00,
2013-10-21 18:50:00,41.4,29.7,30.01,WNW,298,2.0,2.0,63,0.00,,,0.00,0,Wunderground v.1.15,2013-10-21 23:50:00,
2013-10-21 18:55:00,40.9,30.4,30.01,WNW,298,2.0,2.0,66,0.00,,,0.00,0,Wunderground v.1.15,2013-10-21 23:55:00,
2013-10-21 19:00:00,40.4,29.6,30.01,WNW,298,2.0,2.0,65,0.00,,,0.00,0,Wunderground v.1.15,2013-10-22 00:00:00,
2013-10-21 19:05:00,40.0,30.3,30.01,WNW,298,2.0,3.0,68,0.00,,,0.00,0,Wunderground v.1.15,2013-10-22 00:05:00,
2013-10-21 19:15:00,39.7,30.7,30.01,WNW,298,2.0,2.0,70,0.00,,,0.00,0,Wunderground v.1.15,2013-10-22 00:15:00,
2013-10-21 19:20:00,39.5,30.5,30.01,WNW,298,2.0,2.0,70,0.00,,,0.00,0,Wunderground v.1.15,2013-10-22 00:20:00,
2013-10-21 19:25:00,39.3,29.6,30.01,WNW,298,2.0,2.0,68,0.00,,,0.00,0,Wunderground v.1.15,2013-10-22 00:25:00,
2013-10-21 19:30:00,39.1,29.4,30.02,WNW,298,1.0,1.0,68,0.00,,,0.00,0,Wunderground v.1.15,2013-10-22 00:30:00,
2013-10-21 19:35:00,38.9,28.5,30.01,WNW,298,0.0,1.0,66,0.00,,,0.00,0,Wunderground v.1.15,2013-10-22 00:35:00,
2013-10-21 19:45:00,38.5,28.9,30.01,WNW,298,0.0,0.0,68,0.00,,,0.00,0,Wunderground v.1.15,2013-10-22 00:45:00,
2013-10-21 19:50:00,38.3,28.7,30.02,WNW,298,0.0,0.0,68,0.00,,,0.00,0,Wunderground v.1.15,2013-10-22 00:50:00,
2013-10-21 19:55:00,38.0,28.4,30.02,WNW,298,0.0,0.0,68,0.00,,,0.00,0,Wunderground v.1.15,2013-10-22 00:55:00,
2013-10-21 20:00:00,37.8,27.8,30.02,WNW,298,0.0,0.0,67,0.00,,,0.00,0,Wunderground v.1.15,2013-10-22 01:00:00,
2013-10-21 20:05:00,37.4,27.4,30.02,WNW,298,0.0,0.0,67,0.00,,,0.00,0,Wunderground v.1.15,2013-10-22 01:05:00,
2013-10-21 20:10:00,37.1,27.2,30.02,WNW,298,0.0,2.0,67,0.00,,,0.00,0,Wunderground v.1.15,2013-10-22 01:10:00,
2013-10-21 20:20:00,36.5,28.0,30.02,WNW,298,1.0,1.0,71,0.00,,,0.00,0,Wunderground v.1.15,2013-10-22 01:20:00,
2013-10-21 20:25:00,36.2,27.7,30.02,WNW,298,1.0,1.0,71,0.00,,,0.00,0,Wunderground v.1.15,2013-10-22 01:25:00,
2013-10-21 20:30:00,35.7,27.9,30.02,WNW,298,1.0,2.0,73,0.00,,,0.00,0,Wunderground v.1.15,2013-10-22 01:30:00,
2013-10-21 20:35:00,35.2,27.7,30.02,WNW,298,1.0,2.0,74,0.00,,,0.00,0,Wunderground v.1.15,2013-10-22 01:35:00,
2013-10-21 20:40:00,34.9,27.8,30.02,WNW,298,1.0,1.0,75,0.00,,,0.00,0,Wunderground v.1.15,2013-10-22 01:40:00,
2013-10-21 20:50:00,34.3,27.8,30.02,WNW,298,1.0,1.0,77,0.00,,,0.00,0,Wunderground v.1.15,2013-10-22 01:50:00,
2013-10-21 20:55:00,34.0,27.5,30.03,WNW,298,1.0,1.0,77,0.00,,,0.00,0,Wunderground v.1.15,2013-10-22 01:55:00,
2013-10-21 21:00:00,33.7,27.6,30.03,WNW,298,1.0,1.0,78,0.00,,,0.00,0,Wunderground v.1.15,2013-10-22 02:00:00,
2013-10-21 21:10:00,33.1,27.3,30.03,WNW,298,1.0,2.0,79,0.00,,,0.00,0,Wunderground v.1.15,2013-10-22 02:10:00,
2013-10-21 21:15:00,33.0,27.2,30.03,WNW,298,2.0,3.0,79,0.00,,,0.00,0,Wunderground v.1.15,2013-10-22 02:15:00,
2013-10-21 21:20:00,32.9,27.1,30.03,WNW,298,3.0,3.0,79,0.00,,,0.00,0,Wunderground v.1.15,2013-10-22 02:20:00,
2013-10-21 21:25:00,32.8,27.3,30.03,WNW,298,3.0,3.0,80,0.00,,,0.00,0,Wunderground v.1.15,2013-10-22 02:25:00,
2013-10-21 21:30:00,32.8,27.3,30.03,WNW,298,3.0,4.0,80,0.00,,,0.00,0,Wunderground v.1.15,2013-10-22 02:30:00,
2013-10-21 21:35:00,32.8,27.3,30.03,WNW,298,3.0,4.0,80,0.00,,,0.00,0,Wunderground v.1.15,2013-10-22 02:35:00,
2013-10-21 21:40:00,32.8,27.6,30.03,WNW,298,3.0,3.0,81,0.00,,,0.00,0,Wunderground v.1.15,2013-10-22 02:40:00,
2013-10-21 21:45:00,32.7,27.8,30.04,WNW,298,3.0,3.0,82,0.00,,,0.00,0,Wunderground v.1.15,2013-10-22 02:45:00,
2013-10-21 21:55:00,32.6,28.0,30.04,WNW,298,3.0,3.0,83,0.00,,,0.00,0,Wunderground v.1.15,2013-10-22 02:55:00,
2013-10-21 22:00:00,32.6,28.0,30.04,WNW,298,3.0,3.0,83,0.00,,,0.00,0,Wunderground v.1.15,2013-10-22 03:00:00,
2013-10-21 22:10:00,32.5,28.2,30.04,WNW,298,3.0,3.0,84,0.00,,,0.00,0,Wunderground v.1.15,2013-10-22 03:10:00,
2013-10-21 22:15:00,32.4,28.1,30.03,WNW,298,3.0,3.0,84,0.00,,,0.00,0,Wunderground v.1.15,2013-10-22 03:15:00,
2013-10-21 22:20:00,32.3,28.0,30.03,WNW,298,3.0,3.0,84,0.00,,,0.00,0,Wunderground v.1.15,2013-10-22 03:20:00,
2013-10-21 22:25:00,32.2,28.2,30.03,WNW,298,3.0,3.0,85,0.00,,,0.00,0,Wunderground v.1.15,2013-10-22 03:25:00,
2013-10-21 22:30:00,32.3,28.3,30.03,WNW,298,3.0,3.0,85,0.00,,,0.00,0,Wunderground v.1.15,2013-10-22 03:30:00,
2013-10-21 22:35:00,32.3,28.3,30.03,WNW,298,2.0,3.0,85,0.00,,,0.00,0,Wunderground v.1.15,2013-10-22 03:35:00,
2013-10-21 22:40:00,32.3,28.3,30.03,WNW,298,2.0,3.0,85,0.00,,,0.00,0,Wunderground v.1.15,2013-10-22 03:40:00,
2013-10-21 22:45:00,32.1,28.1,30.03,WNW,298,2.0,3.0,85,0.00,,,0.00,0,Wunderground v.1.15,2013-10-22 03:45:00,
2013-10-21 22:50:00,32.1,28.1,30.03,WNW,298,2.0,2.0,85,0.00,,,0.00,0,Wunderground v.1.15,2013-10-22 03:50:00,
2013-10-21 23:00:00,31.9,27.9,30.03,WNW,298,2.0,2.0,85,0.00,,,0.00,0,Wunderground v.1.15,2013-10-22 04:00:00,
2013-10-21 23:05:00,31.9,27.9,30.03,WNW,298,2.0,2.0,85,0.00,,,0.00,0,Wunderground v.1.15,2013-10-22 04:05:00,
2013-10-21 23:10:00,31.9,28.2,30.03,WNW,298,2.0,2.0,86,0.00,,,0.00,0,Wunderground v.1.15,2013-10-22 04:10:00,
2013-10-21 23:15:00,31.9,27.9,30.03,WNW,298,2.0,2.0,85,0.00,,,0.00,0,Wunderground v.1.15,2013-10-22 04:15:00,
2013-10-21 23:20:00,31.9,27.9,30.03,WNW,298,2.0,2.0,85,0.00,,,0.00,0,Wunderground v.1.15,2013-10-22 04:20:00,
2013-10-21 23:25:00,32.0,28.0,30.03,WNW,298,2.0,2.0,85,0.00,,,0.00,0,Wunderground v.1.15,2013-10-22 04:25:00,
2013-10-21 23:30:00,32.1,28.1,30.03,WNW,298,2.0,2.0,85,0.00,,,0.00,0,Wunderground v.1.15,2013-10-22 04:30:00,
2013-10-21 23:35:00,32.1,28.1,30.03,WNW,298,2.0,2.0,85,0.00,,,0.00,0,Wunderground v.1.15,2013-10-22 04:35:00,
2013-10-21 23:40:00,32.2,28.2,30.03,WNW,298,1.0,1.0,85,0.00,,,0.00,0,Wunderground v.1.15,2013-10-22 04:40:00,
2013-10-21 23:45:00,32.1,28.1,30.02,WNW,298,1.0,1.0,85,0.00,,,0.00,0,Wunderground v.1.15,2013-10-22 04:45:00,
2013-10-21 23:50:00,32.0,28.0,30.02,WNW,298,1.0,2.0,85,0.00,,,0.00,0,Wunderground v.1.15,2013-10-22 04:50:00,
2013-10-21 23:55:00,31.9,27.9,30.03,WNW,298,1.0,2.0,85,0.00,,,0.00,0,Wunderground v.1.15,2013-10-22 04:55:00,